Cannes, France

3:56 PM CEST on June 25, 2017 (GMT +0200)
Mandelieu

Weather History for LFMD - February, 2013

Change the Weather History Date:

Friday, February 1, 2013

  Actual Average Record
Temperature  
Mean Temperature 54 °F -  
Max Temperature 68 °F 54 °F 68 °F (2013)
Min Temperature 41 °F 40 °F 28 °F (1999)
Degree Days  
Heating Degree Days 10    
Growing Degree Days 4 (Base 50)    
Moisture  
Dew Point 42 °F    
Average Humidity 67    
Maximum Humidity 93    
Minimum Humidity 33    
Precipitation  
Precipitation 0.00 in - - ()
Sea Level Pressure  
Sea Level Pressure 29.84 in    
Wind  
Wind Speed 8 mph ()    
Max Wind Speed 22 mph    
Max Gust Speed 34 mph    
Visibility 6.0 miles    
Events      
Averages and records for this station are not official NWS values.
T = Trace of Precipitation, MM = Missing Value Source: Averaged Metar Reports

Daily Weather History Graph

Daily Weather History Graph

Search for Another Location

Airport or City:

Trip Planner

Search our weather history database for the weather conditions in past years. The results will help you decide how hot, cold, wet, or windy it might be!

Date:

Astronomy

Feb. 01, 2013 Rise Set
Actual Time 7:48 AM CET 5:43 PM CET
Civil Twilight 7:18 AM CET 6:14 PM CET
Nautical Twilight 6:43 AM CET 6:48 PM CET
Astronomical Twilight 6:10 AM CET 7:21 PM CET
Moon 11:46 PM CET (2/1) 10:00 AM CET (2/1)
Length of Visible Light 10h 55m
Length of Day
9h 55m
Waning Gibbous, 73% of the Moon is Illuminated
Feb 1
Waning Gibbous
Feb 3
Last Quarter
Feb 10
New
Feb 17
First Quarter
Feb 25
Full

Hourly Weather History & Observations

Time (CET) Temp. Windchill Dew Point Humidity Pressure Visibility Wind Dir Wind Speed Gust Speed Precip Events Conditions
12:00 AM 46.4 °F 45.2 °F 42.8 °F 87% 30.09 in - NNW 3.5 mph - N/A   Mostly Cloudy
12:30 AM 44.6 °F 43.1 °F 41.0 °F 87% 30.09 in 2.8 mi North 3.5 mph - N/A   Scattered Clouds
1:00 AM 44.6 °F 43.1 °F 42.8 °F 93% 30.09 in 5.0 mi North 3.5 mph - N/A   Mostly Cloudy
1:30 AM 42.8 °F 41.1 °F 41.0 °F 93% 30.09 in 4.3 mi North 3.5 mph - N/A   Partly Cloudy
2:00 AM 42.8 °F 41.1 °F 41.0 °F 93% 30.06 in 5.6 mi Variable 3.5 mph - N/A   Unknown
2:30 AM 42.8 °F 40.1 °F 41.0 °F 93% 30.06 in 6.2 mi North 4.6 mph - N/A   Unknown
3:00 AM 42.8 °F 41.1 °F 39.2 °F 87% 30.04 in 6.2 mi Variable 3.5 mph - N/A   Unknown
3:30 AM 42.8 °F 40.1 °F 39.2 °F 87% 30.04 in 6.2 mi Variable 4.6 mph - N/A   Unknown
4:00 AM 42.8 °F 38.0 °F 41.0 °F 93% 30.04 in 6.2 mi North 8.1 mph - N/A   Unknown
4:30 AM 42.8 °F 40.1 °F 39.2 °F 87% 30.01 in 6.2 mi North 4.6 mph - N/A   Unknown
5:00 AM 42.8 °F 39.3 °F 39.2 °F 87% 29.98 in 6.2 mi Variable 5.8 mph - N/A   Unknown
5:30 AM 41.0 °F 38.0 °F 39.2 °F 93% 29.98 in 6.2 mi North 4.6 mph - N/A   Unknown
6:00 AM 41.0 °F 39.0 °F 37.4 °F 87% 29.98 in 6.2 mi North 3.5 mph - N/A   Unknown
6:30 AM 41.0 °F - 37.4 °F 87% 29.98 in 6.2 mi Variable 2.3 mph - N/A   Unknown
7:00 AM 41.0 °F - 37.4 °F 87% 29.95 in 6.2 mi Variable 2.3 mph - N/A   Unknown
7:30 AM 41.0 °F 38.0 °F 37.4 °F 87% 29.95 in 6.2 mi North 4.6 mph - N/A   Unknown
8:00 AM 41.0 °F - 37.4 °F 87% 29.95 in 6.2 mi Variable 1.2 mph - N/A   Unknown
8:30 AM 42.8 °F 40.1 °F 39.2 °F 87% 29.92 in 6.2 mi North 4.6 mph - N/A   Unknown
9:00 AM 46.4 °F - 41.0 °F 81% 29.92 in 6.2 mi Variable 2.3 mph - N/A   Unknown
9:30 AM 48.2 °F - 41.0 °F 76% 29.92 in 6.2 mi Variable 4.6 mph - N/A   Unknown
10:00 AM 60.8 °F - 39.2 °F 45% 29.89 in 6.2 mi WSW 12.7 mph - N/A   Unknown
10:30 AM 62.6 °F - 41.0 °F 45% 29.89 in 6.2 mi WSW 18.4 mph - N/A   Unknown
11:00 AM 62.6 °F - 39.2 °F 42% 29.89 in 6.2 mi WSW 19.6 mph - N/A   Unknown
11:30 AM 64.4 °F - 39.2 °F 40% 29.86 in 6.2 mi WSW 20.7 mph - N/A   Unknown
12:00 PM 64.4 °F - 37.4 °F 37% 29.86 in 6.2 mi WSW 21.9 mph 34.5 mph N/A   Unknown
12:30 PM 68.0 °F - 39.2 °F 35% 29.83 in 6.2 mi WSW 15.0 mph - N/A   Unknown
1:00 PM 68.0 °F - 37.4 °F 33% 29.83 in 6.2 mi WSW 19.6 mph - N/A   Unknown
1:30 PM 68.0 °F - 42.8 °F 40% 29.80 in 6.2 mi West 17.3 mph - N/A   Unknown
2:00 PM 68.0 °F - 42.8 °F 40% 29.80 in 6.2 mi West 17.3 mph - N/A   Unknown
2:30 PM 66.2 °F - 42.8 °F 43% 29.77 in 6.2 mi West 15.0 mph 28.8 mph N/A   Unknown
3:00 PM 66.2 °F - 44.6 °F 46% 29.74 in 6.2 mi West 12.7 mph - N/A   Unknown
3:30 PM 64.4 °F - 44.6 °F 49% 29.74 in 6.2 mi WSW 13.8 mph - N/A   Unknown
4:30 PM 62.6 °F - 46.4 °F 55% 29.74 in 6.2 mi WSW 15.0 mph - N/A   Unknown
5:00 PM 62.6 °F - 46.4 °F 55% 29.71 in 6.2 mi WSW 16.1 mph - N/A   Unknown
5:30 PM 62.6 °F - 46.4 °F 55% 29.71 in 6.2 mi West 15.0 mph - N/A   Unknown
6:00 PM 60.8 °F - 46.4 °F 59% 29.68 in 6.2 mi West 17.3 mph - N/A   Unknown
6:30 PM 60.8 °F - 46.4 °F 59% 29.68 in 6.2 mi West 17.3 mph - N/A   Unknown
7:00 PM 60.8 °F - 46.4 °F 59% 29.65 in 6.2 mi West 15.0 mph - N/A   Unknown
7:30 PM 59.0 °F - 46.4 °F 63% 29.65 in 6.2 mi West 17.3 mph - N/A   Unknown
8:00 PM 59.0 °F - 44.6 °F 59% 29.65 in 6.2 mi West 13.8 mph - N/A   Unknown
8:30 PM 57.2 °F - 46.4 °F 67% 29.62 in 6.2 mi WSW 16.1 mph - N/A   Unknown
9:00 PM 57.2 °F - 46.4 °F 67% 29.59 in 6.2 mi West 17.3 mph 29.9 mph N/A   Unknown
9:30 PM 57.2 °F - 44.6 °F 63% 29.59 in 6.2 mi WSW 15.0 mph - N/A   Unknown
10:00 PM 57.2 °F - 44.6 °F 63% 29.56 in 6.2 mi West 10.4 mph - N/A   Unknown
10:30 PM 57.2 °F - 44.6 °F 63% 29.56 in 6.2 mi WSW 8.1 mph - N/A   Unknown
11:00 PM 57.2 °F - 44.6 °F 63% 29.53 in 6.2 mi WSW 15.0 mph - N/A   Unknown
11:30 PM 59.0 °F - 42.8 °F 55% 29.53 in 6.2 mi West 13.8 mph 26.5 mph N/A   Unknown